• In Kazakhstan
  • List of Countries
  • For 7 days
  • Water Temperature
  • Satellite Maps
  • Weather Map
  • News
  • Weather Widgets
  • user-avatar
    Login

    Hourly Weather Hrodna

    Today, 23 October, Monday

    Time Temperature Precipitation Wind Pressure Humidity
    00:00 +3°C° 0.1 mm 3 mps 751 mmHg 82%
    01:00 +3°C° 0.1 mm 3 mps 751 mmHg 82%
    02:00 +3°C° 0 mm 3 mps 751 mmHg 84%
    03:00 +2°C° 0.1 mm 3 mps 750 mmHg 84%
    04:00 +2°C° 0.1 mm 3 mps 750 mmHg 84%
    05:00 +2°C° 0.1 mm 3 mps 750 mmHg 84%
    06:00 +2°C° 0 mm 3 mps 750 mmHg 84%
    07:00 +2°C° 0 mm 3 mps 750 mmHg 84%
    08:00 +2°C° 0 mm 3 mps 750 mmHg 84%
    09:00 +1°C° 0 mm 4 mps 751 mmHg 81%
    10:00 +3°C° 0 mm 4 mps 751 mmHg 78%
    11:00 +4°C° 0 mm 4 mps 751 mmHg 76%
    12:00 +4°C° 0 mm 4 mps 751 mmHg 74%
    13:00 +5°C° 0 mm 4 mps 751 mmHg 72%
    14:00 +6°C° 0 mm 4 mps 752 mmHg 70%
    15:00 +5°C° 0 mm 4 mps 752 mmHg 71%
    16:00 +5°C° 0 mm 4 mps 752 mmHg 72%
    17:00 +4°C° 0 mm 3 mps 752 mmHg 74%
    18:00 +4°C° 0 mm 4 mps 753 mmHg 74%
    19:00 +4°C° 0 mm 4 mps 753 mmHg 74%
    20:00 +3°C° 0 mm 4 mps 754 mmHg 75%
    21:00 +3°C° 0 mm 4 mps 754 mmHg 75%
    22:00 +1°C° 0 mm 4 mps 755 mmHg 76%
    23:00 +2°C° 0 mm 3 mps 755 mmHg 77%

    Tomorrow, 24 October, Tuesday

    Time Temperature Precipitation Wind Pressure Humidity
    00:00 +2°C° 0 mm 3 mps 756 mmHg 78%
    01:00 +1°C° 0 mm 3 mps 756 mmHg 80%
    02:00 +1°C° 0 mm 3 mps 757 mmHg 82%
    03:00 0°C° 0 mm 3 mps 757 mmHg 84%
    04:00 0°C° 0 mm 3 mps 757 mmHg 85%
    05:00 -1°C° 0 mm 3 mps 758 mmHg 87%
    06:00 -1°C° 0 mm 3 mps 758 mmHg 87%
    07:00 -1°C° 0 mm 3 mps 759 mmHg 86%
    08:00 -1°C° 0 mm 3 mps 759 mmHg 86%
    09:00 0°C° 0 mm 3 mps 759 mmHg 79%
    10:00 +2°C° 0 mm 3 mps 760 mmHg 72%
    11:00 +3°C° 0 mm 3 mps 760 mmHg 65%
    12:00 +4°C° 0 mm 3 mps 760 mmHg 62%
    13:00 +5°C° 0 mm 3 mps 760 mmHg 59%
    14:00 +5°C° 0 mm 3 mps 760 mmHg 56%
    15:00 +5°C° 0 mm 3 mps 760 mmHg 61%
    16:00 +5°C° 0 mm 2 mps 760 mmHg 65%
    17:00 +4°C° 0 mm 2 mps 760 mmHg 69%
    18:00 +3°C° 0 mm 2 mps 761 mmHg 72%
    19:00 +2°C° 0 mm 2 mps 761 mmHg 74%
    20:00 +1°C° 0 mm 3 mps 761 mmHg 77%
    21:00 +1°C° 0 mm 3 mps 762 mmHg 78%
    22:00 0°C° 0 mm 3 mps 762 mmHg 79%
    23:00 0°C° 0 mm 3 mps 762 mmHg 79%

    Day after tomorrow, 25 October, Wednesday

    Time Temperature Precipitation Wind Pressure Humidity
    00:00 0°C° 0 mm 3 mps 762 mmHg 80%
    01:00 -1°C° 0 mm 3 mps 762 mmHg 80%
    02:00 -1°C° 0 mm 3 mps 762 mmHg 80%
    03:00 -1°C° 0 mm 3 mps 762 mmHg 80%
    04:00 -1°C° 0 mm 3 mps 762 mmHg 80%
    05:00 -1°C° 0 mm 3 mps 762 mmHg 80%
    06:00 0°C° 0 mm 3 mps 761 mmHg 78%
    07:00 -1°C° 0 mm 4 mps 761 mmHg 76%
    08:00 -1°C° 0 mm 4 mps 761 mmHg 73%
    09:00 0°C° 0 mm 5 mps 761 mmHg 69%
    10:00 +1°C° 0 mm 5 mps 760 mmHg 66%
    11:00 +2°C° 0 mm 5 mps 760 mmHg 62%
    12:00 +3°C° 0.1 mm 6 mps 760 mmHg 60%
    13:00 +3°C° 0.1 mm 6 mps 759 mmHg 59%
    14:00 +4°C° 0.1 mm 6 mps 758 mmHg 58%
    15:00 +3°C° 0.6 mm 6 mps 758 mmHg 62%
    16:00 +3°C° 0.6 mm 6 mps 757 mmHg 66%
    17:00 +2°C° 0.6 mm 6 mps 756 mmHg 70%
    18:00 +3°C° 0.6 mm 7 mps 755 mmHg 73%
    19:00 +3°C° 0.6 mm 7 mps 755 mmHg 77%
    20:00 +3°C° 0.6 mm 7 mps 754 mmHg 80%
    21:00 +3°C° 1.5 mm 7 mps 753 mmHg 83%
    22:00 +3°C° 1.5 mm 6 mps 753 mmHg 86%
    23:00 +4°C° 1.5 mm 6 mps 752 mmHg 89%

    26 October, Thursday

    Time Temperature Precipitation Wind Pressure Humidity
    00:00 +5°C° 0.2 mm 5 mps 752 mmHg 91%
    01:00 +6°C° 0.2 mm 4 mps 752 mmHg 93%
    02:00 +8°C° 0.2 mm 3 mps 752 mmHg 95%
    03:00 +8°C° 0 mm 3 mps 752 mmHg 95%
    04:00 +8°C° 0 mm 3 mps 752 mmHg 95%
    05:00 +8°C° 0 mm 3 mps 752 mmHg 96%
    06:00 +7°C° 0 mm 4 mps 752 mmHg 95%
    07:00 +7°C° 0 mm 4 mps 753 mmHg 94%
    08:00 +8°C° 0 mm 4 mps 753 mmHg 94%
    09:00 +8°C° 0 mm 5 mps 753 mmHg 90%
    10:00 +9°C° 0 mm 5 mps 752 mmHg 86%
    11:00 +9°C° 0 mm 5 mps 752 mmHg 83%
    12:00 +9°C° 0.1 mm 5 mps 752 mmHg 83%
    13:00 +9°C° 0.1 mm 5 mps 752 mmHg 83%
    14:00 +9°C° 0.1 mm 5 mps 752 mmHg 82%
    15:00 +9°C° 0.1 mm 5 mps 751 mmHg 84%
    16:00 +10°C° 0.1 mm 4 mps 751 mmHg 85%
    17:00 +10°C° 0.1 mm 4 mps 751 mmHg 86%
    18:00 +8°C° 0.1 mm 4 mps 751 mmHg 86%
    19:00 +8°C° 0.1 mm 4 mps 750 mmHg 87%
    20:00 +8°C° 0.1 mm 4 mps 750 mmHg 87%
    21:00 +8°C° 0.1 mm 4 mps 749 mmHg 88%
    22:00 +8°C° 0.1 mm 4 mps 749 mmHg 89%
    23:00 +8°C° 0.1 mm 4 mps 749 mmHg 90%

    27 October, Friday

    Time Temperature Precipitation Wind Pressure Humidity
    00:00 +8°C° 0 mm 4 mps 748 mmHg 91%
    01:00 +7°C° 0 mm 4 mps 748 mmHg 92%
    02:00 +7°C° 0 mm 4 mps 748 mmHg 93%
    03:00 +7°C° 0 mm 4 mps 747 mmHg 92%
    04:00 +7°C° 0 mm 4 mps 747 mmHg 92%
    05:00 +7°C° 0 mm 4 mps 746 mmHg 92%
    06:00 +7°C° 0 mm 4 mps 746 mmHg 92%
    07:00 +7°C° 0 mm 4 mps 746 mmHg 92%
    08:00 +7°C° 0 mm 4 mps 745 mmHg 92%
    09:00 +7°C° 0.1 mm 4 mps 745 mmHg 88%
    10:00 +8°C° 0.1 mm 5 mps 745 mmHg 84%
    11:00 +9°C° 0.1 mm 5 mps 744 mmHg 80%
    12:00 +9°C° 0.1 mm 5 mps 744 mmHg 78%
    13:00 +9°C° 0.1 mm 5 mps 744 mmHg 76%
    14:00 +9°C° 0.1 mm 5 mps 743 mmHg 74%
    15:00 +10°C° 0.1 mm 4 mps 743 mmHg 77%
    16:00 +8°C° 0.1 mm 4 mps 743 mmHg 81%
    17:00 +8°C° 0.1 mm 3 mps 743 mmHg 84%
    18:00 +8°C° 0.1 mm 3 mps 743 mmHg 87%
    19:00 +7°C° 0.1 mm 3 mps 743 mmHg 90%
    20:00 +7°C° 0.1 mm 3 mps 743 mmHg 93%
    21:00 +7°C° 0.1 mm 3 mps 743 mmHg 93%
    22:00 +7°C° 0.1 mm 3 mps 743 mmHg 94%
    23:00 +5°C° 0.1 mm 3 mps 743 mmHg 94%

    28 October, Saturday

    Time Temperature Precipitation Wind Pressure Humidity
    00:00 +5°C° 0 mm 3 mps 743 mmHg 94%
    01:00 +4°C° 0 mm 3 mps 743 mmHg 94%
    02:00 +4°C° 0 mm 3 mps 743 mmHg 93%
    03:00 +4°C° 0 mm 3 mps 743 mmHg 92%
    04:00 +4°C° 0 mm 4 mps 743 mmHg 91%
    05:00 +4°C° 0 mm 4 mps 742 mmHg 89%
    06:00 +3°C° 0 mm 4 mps 742 mmHg 90%
    07:00 +3°C° 0 mm 4 mps 742 mmHg 90%
    08:00 +3°C° 0 mm 4 mps 742 mmHg 91%
    09:00 +4°C° 0 mm 4 mps 742 mmHg 87%
    10:00 +5°C° 0 mm 5 mps 741 mmHg 84%
    11:00 +6°C° 0 mm 5 mps 741 mmHg 80%
    12:00 +6°C° 0.2 mm 5 mps 740 mmHg 79%
    13:00 +7°C° 0.2 mm 5 mps 739 mmHg 77%
    14:00 +7°C° 0.2 mm 6 mps 738 mmHg 75%
    15:00 +6°C° 0.3 mm 5 mps 737 mmHg 79%
    16:00 +6°C° 0.3 mm 5 mps 735 mmHg 82%
    17:00 +6°C° 0.3 mm 4 mps 734 mmHg 85%
    18:00 +5°C° 0.3 mm 4 mps 734 mmHg 87%
    19:00 +5°C° 0.3 mm 4 mps 733 mmHg 88%
    20:00 +5°C° 0.3 mm 3 mps 732 mmHg 90%
    21:00 +5°C° 0.5 mm 3 mps 732 mmHg 91%
    22:00 +6°C° 0.5 mm 2 mps 732 mmHg 92%
    23:00 +6°C° 0.5 mm 2 mps 732 mmHg 93%

    29 October, Sunday

    Time Temperature Precipitation Wind Pressure Humidity
    00:00 +6°C° 0.7 mm 2 mps 732 mmHg 94%
    01:00 +6°C° 0.7 mm 2 mps 732 mmHg 95%
    02:00 +5°C° 0.7 mm 3 mps 732 mmHg 95%
    03:00 +5°C° 0.4 mm 3 mps 733 mmHg 95%
    04:00 +5°C° 0.4 mm 3 mps 733 mmHg 94%
    05:00 +5°C° 0.4 mm 4 mps 734 mmHg 93%
    06:00 +5°C° 0.4 mm 4 mps 735 mmHg 93%
    07:00 +5°C° 0.4 mm 4 mps 735 mmHg 92%
    08:00 +5°C° 0.4 mm 4 mps 736 mmHg 91%
    09:00 +5°C° 0.2 mm 5 mps 737 mmHg 88%
    10:00 +5°C° 0.2 mm 5 mps 738 mmHg 86%
    11:00 +6°C° 0.2 mm 5 mps 739 mmHg 83%
    12:00 +6°C° 0.1 mm 5 mps 739 mmHg 81%
    13:00 +6°C° 0.1 mm 5 mps 739 mmHg 79%
    14:00 +6°C° 0.1 mm 5 mps 740 mmHg 78%
    15:00 +6°C° 0.2 mm 5 mps 740 mmHg 79%
    16:00 +6°C° 0.2 mm 5 mps 741 mmHg 81%
    17:00 +5°C° 0.2 mm 5 mps 741 mmHg 82%
    18:00 +4°C° 0.2 mm 6 mps 742 mmHg 82%
    19:00 +4°C° 0.2 mm 6 mps 742 mmHg 82%
    20:00 +3°C° 0.2 mm 6 mps 743 mmHg 82%
    21:00 +3°C° 0.2 mm 6 mps 743 mmHg 82%
    22:00 +3°C° 0.2 mm 6 mps 744 mmHg 83%
    23:00 +3°C° 0.2 mm 6 mps 744 mmHg 83%
    Show more